TimeCST,TemperatureF,Dew PointF,Humidity,Sea Level PressureIn,VisibilityMPH,Wind Direction,Wind SpeedMPH,Gust SpeedMPH,PrecipitationIn,Events,Conditions,WindDirDegrees,DateUTC
12:52 AM,33.1,28.0,82,30.13,5.0,SSE,8.1,-,N/A,,Haze,160,2013-02-07 06:52:00
1:52 AM,33.1,28.0,82,30.12,6.0,SE,5.8,-,N/A,,Haze,140,2013-02-07 07:52:00
2:52 AM,33.1,28.0,82,30.12,5.0,SSE,8.1,-,N/A,,Haze,160,2013-02-07 08:52:00
3:52 AM,33.1,28.0,82,30.09,5.0,SSE,10.4,-,N/A,,Haze,160,2013-02-07 09:52:00
4:52 AM,33.1,28.0,82,30.09,6.0,SSE,8.1,-,N/A,,Haze,160,2013-02-07 10:52:00
5:52 AM,33.1,28.0,82,30.09,5.0,SSE,10.4,-,N/A,,Haze,160,2013-02-07 11:52:00
6:21 AM,33.8,28.4,81,30.05,5.0,SSE,9.2,-,N/A,,Haze,160,2013-02-07 12:21:00
6:52 AM,32.0,28.9,88,30.08,4.0,SSE,10.4,-,0.00,Snow,Light Snow,160,2013-02-07 12:52:00
7:05 AM,32.0,28.4,87,30.04,3.0,SSE,10.4,-,0.00,Snow,Light Snow,160,2013-02-07 13:05:00
7:15 AM,32.0,28.4,87,30.05,3.0,SSE,10.4,-,0.00,Snow,Light Snow,160,2013-02-07 13:15:00
7:28 AM,32.0,28.4,87,30.04,3.0,SSE,9.2,-,0.00,,Light Ice Pellets,160,2013-02-07 13:28:00
7:52 AM,32.0,30.0,92,30.06,2.5,SSE,9.2,-,0.00,Rain,Light Rain,160,2013-02-07 13:52:00
8:36 AM,32.0,30.2,93,30.03,1.8,SSE,8.1,-,0.01,Rain,Light Rain,160,2013-02-07 14:36:00
8:52 AM,32.0,30.9,96,30.06,1.8,SSE,6.9,-,0.02,Rain,Light Rain,160,2013-02-07 14:52:00
9:52 AM,33.1,30.9,92,30.04,1.8,South,8.1,-,0.01,Rain,Light Rain,170,2013-02-07 15:52:00
10:06 AM,33.8,30.2,87,30.02,1.0,South,6.9,-,N/A,Snow,Light Snow,170,2013-02-07 16:06:00
10:14 AM,33.8,30.2,87,30.01,0.8,SSE,5.8,-,0.00,Snow,Light Snow,160,2013-02-07 16:14:00
10:52 AM,33.1,32.0,96,30.04,0.8,South,5.8,-,0.02,Snow,Light Snow,170,2013-02-07 16:52:00
11:52 AM,33.1,32.0,96,30.01,0.8,SSE,6.9,-,0.02,Snow,Light Snow,150,2013-02-07 17:52:00
12:25 PM,33.8,32.0,93,29.98,0.2,SSE,6.9,-,0.02,Fog-Snow,Snow,150,2013-02-07 18:25:00
12:52 PM,33.1,32.0,96,29.99,0.2,SSE,3.5,-,0.05,Fog-Snow,Snow,150,2013-02-07 18:52:00
1:13 PM,32.0,32.0,100,29.96,0.2,Calm,Calm,-,0.03,Fog-Snow,Snow,0,2013-02-07 19:13:00
1:38 PM,32.0,32.0,100,29.94,0.2,Calm,Calm,-,0.06,Fog-Snow,Snow,0,2013-02-07 19:38:00
1:52 PM,33.1,32.0,96,29.96,0.2,Calm,Calm,-,0.08,Fog-Snow,Snow,0,2013-02-07 19:52:00
2:52 PM,32.0,32.0,100,29.94,0.2,Calm,Calm,-,0.08,Fog-Snow,Snow,0,2013-02-07 20:52:00
3:30 PM,32.0,30.2,93,29.90,0.2,NE,4.6,-,0.04,Fog-Snow,Snow,40,2013-02-07 21:30:00
3:52 PM,32.0,32.0,100,29.92,0.2,NE,3.5,-,0.07,Fog-Snow,Snow,50,2013-02-07 21:52:00
4:10 PM,32.0,32.0,100,29.90,0.5,NE,4.6,-,0.02,Fog-Snow,Snow,40,2013-02-07 22:10:00
4:52 PM,32.0,32.0,100,29.91,0.5,NNE,3.5,-,0.05,Fog-Snow,Snow,20,2013-02-07 22:52:00
5:11 PM,32.0,32.0,100,29.90,0.2,North,4.6,-,0.03,Fog-Snow,Snow,10,2013-02-07 23:11:00
5:24 PM,32.0,30.2,93,29.90,0.5,North,5.8,-,0.04,Snow,Light Snow,10,2013-02-07 23:24:00
5:52 PM,32.0,32.0,100,29.93,0.5,North,4.6,-,0.08,Fog-Snow,Snow,10,2013-02-07 23:52:00
6:03 PM,32.0,32.0,100,29.91,0.5,NNE,5.8,-,0.01,Fog-Snow,Snow,20,2013-02-08 00:03:00
6:52 PM,32.0,32.0,100,29.94,0.5,NNE,6.9,-,0.08,Fog-Snow,Snow,20,2013-02-08 00:52:00
7:52 PM,32.0,32.0,100,29.95,0.5,NNE,10.4,-,0.05,Fog-Snow,Snow,20,2013-02-08 01:52:00
8:52 PM,32.0,32.0,100,29.96,0.5,North,12.7,-,0.02,Fog-Snow,Light Snow,360,2013-02-08 02:52:00
9:04 PM,32.0,32.0,100,29.93,1.0,North,11.5,-,0.01,Snow,Light Snow,360,2013-02-08 03:04:00
9:52 PM,32.0,30.9,96,29.96,1.2,North,13.8,23.0,0.02,Snow,Light Snow,360,2013-02-08 03:52:00
10:05 PM,30.2,28.4,93,29.95,1.5,NNW,17.3,28.8,0.01,Snow,Light Snow,340,2013-02-08 04:05:00
10:24 PM,28.4,28.4,100,29.95,1.0,North,18.4,24.2,0.01,Snow,Light Snow,360,2013-02-08 04:24:00
10:33 PM,28.4,26.6,93,29.95,0.8,North,16.1,27.6,0.01,Snow,Light Snow,350,2013-02-08 04:33:00
10:40 PM,28.4,26.6,93,29.96,0.8,North,15.0,20.7,0.01,Snow,Light Snow,350,2013-02-08 04:40:00
10:49 PM,26.6,26.6,100,29.96,1.0,NNW,17.3,23.0,0.01,Snow,Light Snow,340,2013-02-08 04:49:00
10:52 PM,27.0,25.0,92,29.99,0.8,North,17.3,23.0,0.01,Snow,Light Snow,350,2013-02-08 04:52:00
11:44 PM,26.6,24.8,93,29.98,0.8,NNW,13.8,23.0,N/A,Snow,Light Snow,340,2013-02-08 05:44:00
11:52 PM,26.1,24.1,92,30.02,0.8,NNW,11.5,20.7,0.01,Snow,Light Snow,340,2013-02-08 05:52:00
11:59 PM,24.8,23.0,93,29.99,1.0,NNW,13.8,21.9,0.00,Snow,Light Snow,340,2013-02-08 05:59:00